EW9135 Weather Reports


time (UTC)temp
F
wind
direction
speed
knots
gust
knots
rain 1hr
in
rain 24hr
in
rain mn
in
humidity
%
barometer
mb
20260831012120 83 201 0.0 1.7 0.00 0.00 0.00 12 1016.7
20260831011614 83 253 0.0 1.7 0.00 0.00 0.00 12 1016.7
20260831011109 83 304 0.0 0.9 0.00 0.00 0.00 12 1016.7
20260831010603 83 288 0.0 0.9 0.00 0.00 0.00 12 1016.7
20260831010058 83 70 0.0 0.9 0.00 0.00 0.00 12 1016.7
20260831010053 83 278 0.0 0.0 0.00 0.00 0.00 12 1017.0
20260831005046 83 104 0.0 0.0 0.00 0.00 0.00 12 1016.7
20260831004543 84 287 0.0 2.6 0.00 0.00 0.00 12 1017.0
20260831004538 84 306 0.0 2.6 0.00 0.00 0.00 12 1017.0
20260831003530 84 326 0.0 0.9 0.00 0.00 0.00 12 1017.0
20260831003024 84 123 0.0 0.9 0.00 0.00 0.00 12 1017.0
20260831002519 84 41 0.0 0.9 0.00 0.00 0.00 12 1017.0
20260831002014 84 160 0.0 0.0 0.00 0.00 0.00 12 1017.0
20260831001508 84 28 0.0 0.9 0.00 0.00 0.00 11 1017.0
20260831001002 84 257 0.0 1.7 0.00 0.00 0.00 11 1017.4
20260831000457 84 59 0.0 0.9 0.00 0.00 0.00 12 1017.4
20260830235951 84 300 0.0 1.7 0.00 0.00 0.00 12 1017.4
20260830235445 84 228 0.0 1.7 0.00 0.00 0.00 12 1017.4
20260830234940 84 336 0.0 2.6 0.00 0.00 0.00 11 1017.4
20260830234435 84 323 0.0 2.6 0.00 0.00 0.00 12 1017.4
20260830233931 84 330 0.0 1.7 0.00 0.00 0.00 12 1017.4
20260830233925 84 54 0.0 1.7 0.00 0.00 0.00 12 1017.4
20260830232918 85 160 0.0 1.7 0.00 0.00 0.00 11 1017.7
20260830232412 85 279 0.0 0.0 0.00 0.00 0.00 11 1017.4
20260830231907 85 218 0.0 0.0 0.00 0.00 0.00 11 1017.7
20260830231402 85 78 0.0 0.9 0.00 0.00 0.00 11 1017.4
20260830230856 86 324 0.0 0.9 0.00 0.00 0.00 11 1017.4
20260830230350 86 261 0.0 0.9 0.00 0.00 0.00 12 1017.7
20260830225845 86 201 0.0 1.7 0.00 0.00 0.00 11 1017.7
20260830225836 87 335 0.0 2.6 0.00 0.00 0.00 11 1017.7
20260830225440 87 342 0.0 2.6 0.00 0.00 0.00 11 1017.7
20260830224331 87 7 0.0 0.9 0.00 0.00 0.00 10 1017.7
20260830224324 87 100 0.0 0.9 0.00 0.00 0.00 10 1018.0
20260830223318 87 197 0.0 0.9 0.00 0.00 0.00 10 1018.0
20260830223313 87 325 0.0 0.9 0.00 0.00 0.00 10 1018.0
20260830222307 86 77 0.0 0.9 0.00 0.00 0.00 10 1018.0
20260830221801 86 87 0.0 1.7 0.00 0.00 0.00 10 1018.0
20260830221256 86 287 0.0 1.7 0.00 0.00 0.00 10 1018.0
20260830220749 86 104 0.0 2.6 0.00 0.00 0.00 10 1018.4
20260830220244 86 21 0.0 2.6 0.00 0.00 0.00 10 1018.4
20260830215739 85 325 0.0 1.7 0.00 0.00 0.00 10 1018.4
20260830215235 86 308 0.0 1.7 0.00 0.00 0.00 10 1018.4
20260830214729 85 141 0.0 1.7 0.00 0.00 0.00 11 1018.7
20260830214222 85 287 0.0 1.7 0.00 0.00 0.00 11 1018.7
20260830213718 85 122 0.0 0.9 0.00 0.00 0.00 11 1018.7
20260830213712 85 16 0.0 2.6 0.00 0.00 0.00 10 1018.7
20260830212706 85 48 0.0 2.6 0.00 0.00 0.00 10 1019.1
20260830212202 85 284 0.0 0.9 0.00 0.00 0.00 10 1018.7
20260830212157 85 139 0.0 1.7 0.00 0.00 0.00 11 1018.7
20260830211149 85 39 0.0 0.9 0.00 0.00 0.00 11 1019.1
20260830210643 85 142 0.0 1.7 0.00 0.00 0.00 11 1019.1
20260830210138 85 186 0.0 1.7 0.00 0.00 0.00 11 1018.7
20260830205633 85 121 0.0 0.9 0.00 0.00 0.00 12 1019.4
20260830205128 85 356 0.0 0.0 0.00 0.00 0.00 11 1019.1
20260830204621 85 37 0.0 0.0 0.00 0.00 0.00 11 1019.1
20260830204116 85 59 0.0 0.9 0.00 0.00 0.00 10 1019.1
20260830203611 85 10 0.0 0.9 0.00 0.00 0.00 12 1019.1
20260830203105 85 51 0.0 0.9 0.00 0.00 0.00 12 1019.1
20260830202600 85 8 0.0 0.9 0.00 0.00 0.00 11 1019.4
20260830202555 85 312 0.0 1.7 0.00 0.00 0.00 11 1019.4
20260830201549 84 325 0.0 1.7 0.00 0.00 0.00 11 1019.4
20260830201043 84 56 0.0 0.0 0.00 0.00 0.00 11 1019.4
20260830200537 84 223 0.0 0.9 0.00 0.00 0.00 10 1019.4
20260830200032 83 132 0.0 0.9 0.00 0.00 0.00 12 1019.7
20260830195526 83 210 0.0 0.0 0.00 0.00 0.00 12 1019.7
20260830195022 83 357 0.0 0.0 0.00 0.00 0.00 12 1019.4
20260830194517 83 237 0.0 0.9 0.00 0.00 0.00 12 1019.7
20260830194512 82 226 0.0 0.9 0.00 0.00 0.00 11 1020.1
20260830193504 82 150 0.0 0.9 0.00 0.00 0.00 12 1019.7
20260830192959 82 1 0.0 0.9 0.00 0.00 0.00 12 1019.7
20260830192951 82 151 0.0 0.9 0.00 0.00 0.00 12 1020.1
20260830192555 82 65 0.0 0.0 0.00 0.00 0.00 10 1019.7
20260830191443 82 15 0.0 1.7 0.00 0.00 0.00 12 1020.1
20260830190937 82 346 0.0 1.7 0.00 0.00 0.00 12 1019.7
20260830190431 81 309 0.0 0.0 0.00 0.00 0.00 12 1020.1
20260830185927 81 120 0.0 0.0 0.00 0.00 0.00 12 1020.1
20260830185921 81 201 0.0 0.0 0.00 0.00 0.00 10 1020.1
20260830184914 80 133 0.0 0.0 0.00 0.00 0.00 10 1020.1
20260830184409 80 185 0.0 0.0 0.00 0.00 0.00 10 1020.4
20260830183903 80 311 0.0 0.0 0.00 0.00 0.00 10 1020.4
20260830183358 79 266 0.0 0.0 0.00 0.00 0.00 10 1020.7
20260830182853 78 183 0.0 0.0 0.00 0.00 0.00 10 1020.4
20260830182348 78 234 0.0 0.0 0.00 0.00 0.00 11 1020.4
20260830181841 78 193 0.0 0.0 0.00 0.00 0.00 11 1020.1
20260830181336 78 286 0.0 0.0 0.00 0.00 0.00 12 1020.4
20260830180830 77 168 0.0 0.0 0.00 0.00 0.00 12 1020.4
20260830180325 77 224 0.0 0.0 0.00 0.00 0.00 12 1020.4
20260830175819 77 84 0.0 0.0 0.00 0.00 0.00 12 1020.4
20260830175313 77 353 0.0 0.0 0.00 0.00 0.00 13 1020.4
20260830175306 77 150 0.0 0.9 0.00 0.00 0.00 17 1020.1
20260830174909 77 168 0.0 0.0 0.00 0.00 0.00 16 1020.4
20260830173757 77 131 0.0 0.9 0.00 0.00 0.00 16 1020.7
20260830173251 76 210 0.0 0.0 0.00 0.00 0.00 15 1020.4
20260830172745 76 231 0.0 0.0 0.00 0.00 0.00 14 1020.4
20260830172240 76 137 0.0 0.0 0.00 0.00 0.00 15 1020.4
20260830171735 76 144 0.0 0.0 0.00 0.00 0.00 15 1020.4
20260830171231 76 108 0.0 0.0 0.00 0.00 0.00 13 1020.4
20260830170723 76 199 0.0 0.0 0.00 0.00 0.00 13 1020.4
20260830170218 76 202 0.0 0.0 0.00 0.00 0.00 14 1020.4
20260830165713 76 136 0.0 0.0 0.00 0.00 0.00 13 1020.4
20260830165208 76 328 0.0 0.0 0.00 0.00 0.00 12 1020.4
20260830165203 76 190 0.0 0.0 0.00 0.00 0.00 13 1020.4
20260830164156 75 56 0.0 0.0 0.00 0.00 0.00 13 1020.4
20260830163650 74 205 0.0 0.0 0.00 0.00 0.00 13 1020.4
20260830163146 74 96 0.0 0.0 0.00 0.00 0.00 14 1020.4
20260830163141 73 175 0.0 0.0 0.00 0.00 0.00 12 1020.4
20260830162134 73 195 0.0 0.0 0.00 0.00 0.00 15 1020.4
20260830161628 72 226 0.0 0.0 0.00 0.00 0.00 17 1020.4
20260830161123 72 182 0.0 0.0 0.00 0.00 0.00 19 1020.7
20260830160618 71 220 0.0 0.0 0.00 0.00 0.00 20 1020.4
20260830160112 71 195 0.0 0.0 0.00 0.00 0.00 19 1020.7
20260830155607 71 119 0.0 0.0 0.00 0.00 0.00 19 1020.4
20260830155100 70 152 0.0 0.0 0.00 0.00 0.00 20 1020.4
20260830154555 70 80 0.0 0.0 0.00 0.00 0.00 23 1020.4
20260830154050 69 267 0.0 0.0 0.00 0.00 0.00 19 1020.4
20260830153544 69 287 0.0 0.0 0.00 0.00 0.00 21 1020.4
20260830153040 68 227 0.0 0.0 0.00 0.00 0.00 21 1020.4
20260830152533 68 230 0.0 0.0 0.00 0.00 0.00 24 1020.4
20260830152028 67 195 0.0 0.0 0.00 0.00 0.00 27 1020.4
20260830151522 67 298 0.0 0.0 0.00 0.00 0.00 29 1020.4
20260830151016 67 150 0.0 0.0 0.00 0.00 0.00 26 1020.4
20260830150511 66 279 0.0 0.0 0.00 0.00 0.00 22 1020.4
20260830150006 65 238 0.0 0.0 0.00 0.00 0.00 22 1020.1
20260830145500 64 229 0.0 0.0 0.00 0.00 0.00 22 1020.4
20260830144954 63 220 0.0 0.0 0.00 0.00 0.00 23 1020.4
20260830144450 63 221 0.0 0.0 0.00 0.00 0.00 27 1020.1
20260830143944 62 225 0.0 0.0 0.00 0.00 0.00 28 1020.1
20260830143438 62 203 0.0 0.0 0.00 0.00 0.00 29 1019.7
20260830142933 61 223 0.0 0.0 0.00 0.00 0.00 29 1019.7
20260830142427 61 229 0.0 0.0 0.00 0.00 0.00 30 1020.1
20260830141921 61 295 0.0 0.0 0.00 0.00 0.00 30 1019.7
20260830141416 61 271 0.0 0.0 0.00 0.00 0.00 31 1019.7
20260830140911 61 221 0.0 0.0 0.00 0.00 0.00 31 1019.7
20260830140406 61 237 0.0 0.0 0.00 0.00 0.00 31 1019.7
20260830135951 61 211 0.0 0.0 0.00 0.00 0.00 31 1019.4
20260830135859 61 234 0.0 0.0 0.00 0.00 0.00 31 1019.7
20260830135353 61 203 0.0 0.0 0.00 0.00 0.00 31 1019.4
20260830135346 61 224 0.0 0.0 0.00 0.00 0.00 31 1019.4
20260830133837 61 238 0.0 0.0 0.00 0.00 0.00 31 1019.4
20260830133333 61 269 0.0 0.0 0.00 0.00 0.00 30 1019.4
20260830133328 61 203 0.0 0.0 0.00 0.00 0.00 30 1019.4
20260830132320 61 301 0.0 0.0 0.00 0.00 0.00 32 1019.1
20260830131815 61 245 0.0 0.0 0.00 0.00 0.00 32 1019.1
20260830131311 61 254 0.0 0.0 0.00 0.00 0.00 30 1019.1
20260830131306 62 310 0.0 0.0 0.00 0.00 0.00 30 1019.1
20260830130258 62 225 0.0 0.0 0.00 0.00 0.00 30 1019.1
20260830125754 62 280 0.0 0.0 0.00 0.00 0.00 30 1019.1
20260830125749 62 225 0.0 0.0 0.00 0.00 0.00 30 1019.1
20260830124742 62 221 0.0 0.0 0.00 0.00 0.00 30 1019.1
20260830124237 62 200 0.0 0.0 0.00 0.00 0.00 30 1018.7
20260830123732 62 235 0.0 0.0 0.00 0.00 0.00 30 1019.1
20260830123227 62 230 0.0 0.0 0.00 0.00 0.00 29 1019.1
20260830122721 63 278 0.0 0.0 0.00 0.00 0.00 29 1019.1
20260830122716 63 274 0.0 0.0 0.00 0.00 0.00 29 1019.1
20260830121709 63 254 0.0 0.0 0.00 0.00 0.00 29 1019.1
20260830121205 63 269 0.0 0.0 0.00 0.00 0.00 28 1019.1
20260830121159 63 240 0.0 0.0 0.00 0.00 0.00 28 1019.1
20260830120153 63 213 0.0 0.0 0.00 0.00 0.00 28 1018.7
20260830115647 64 242 0.0 0.0 0.00 0.00 0.00 28 1019.1
20260830115237 64 195 0.0 0.0 0.00 0.00 0.00 28 1018.7
20260830115141 64 240 0.0 0.0 0.00 0.00 0.00 28 1019.1
20260830115132 64 279 0.0 0.0 0.00 0.00 0.00 28 1019.1
20260830113625 64 236 0.0 0.0 0.00 0.00 0.00 28 1018.7
20260830113120 64 294 0.0 0.0 0.00 0.00 0.00 28 1018.7
20260830112615 64 209 0.0 0.9 0.00 0.00 0.00 28 1019.1
20260830112610 64 205 0.0 0.9 0.00 0.00 0.00 28 1019.1
20260830111603 64 254 0.0 0.0 0.00 0.00 0.00 28 1018.7
20260830111058 64 226 0.0 0.9 0.00 0.00 0.00 27 1019.1
20260830110551 64 185 0.0 0.9 0.00 0.00 0.00 26 1018.7
20260830110046 64 231 0.0 0.0 0.00 0.00 0.00 27 1018.7
20260830105541 64 196 0.0 0.0 0.00 0.00 0.00 27 1018.7
20260830105036 64 269 0.0 0.0 0.00 0.00 0.00 27 1019.1
20260830105030 64 166 0.0 0.0 0.00 0.00 0.00 26 1019.1
20260830104024 64 257 0.0 0.0 0.00 0.00 0.00 25 1018.7
20260830103518 64 255 0.0 0.0 0.00 0.00 0.00 26 1018.7
20260830103012 64 258 0.0 0.9 0.00 0.00 0.00 25 1018.7
20260830102509 64 278 0.0 0.9 0.00 0.00 0.00 25 1018.7
20260830102504 64 240 0.0 0.0 0.00 0.00 0.00 25 1019.1
20260830101456 64 196 0.0 0.0 0.00 0.00 0.00 26 1019.1
20260830100951 64 283 0.0 0.0 0.00 0.00 0.00 28 1019.1
20260830100446 64 243 0.0 0.0 0.00 0.00 0.00 28 1019.1
20260830095940 64 245 0.0 0.0 0.00 0.00 0.00 28 1019.1
20260830095434 64 275 0.0 0.0 0.00 0.00 0.00 26 1018.7
20260830094929 64 190 0.0 0.0 0.00 0.00 0.00 26 1019.1
20260830094424 64 233 0.0 0.0 0.00 0.00 0.00 25 1018.7
20260830093918 64 255 0.0 0.0 0.00 0.00 0.00 25 1018.7
20260830093412 64 219 0.0 0.0 0.00 0.00 0.00 25 1019.1
20260830092906 64 247 0.0 0.0 0.00 0.00 0.00 26 1018.7
20260830092402 64 16 0.0 0.0 0.00 0.00 0.00 28 1019.1
20260830092356 64 216 0.0 0.0 0.00 0.00 0.00 28 1019.1
20260830091350 64 218 0.0 0.0 0.00 0.00 0.00 28 1019.1
20260830090845 64 210 0.0 0.0 0.00 0.00 0.00 28 1019.1
20260830090840 64 223 0.0 0.0 0.00 0.00 0.00 27 1019.1
20260830085834 64 281 0.0 0.0 0.00 0.00 0.00 26 1019.1
20260830085328 64 241 0.0 0.0 0.00 0.00 0.00 26 1019.1
20260830084823 64 221 0.0 0.0 0.00 0.00 0.00 26 1019.1
20260830084318 64 201 0.0 0.0 0.00 0.00 0.00 25 1019.1
20260830083812 64 239 0.0 0.0 0.00 0.00 0.00 27 1019.1
20260830083306 64 241 0.0 0.0 0.00 0.00 0.00 28 1019.1
20260830082801 65 228 0.0 0.0 0.00 0.00 0.00 28 1019.1
20260830082255 65 195 0.0 0.0 0.00 0.00 0.00 29 1019.1
20260830081750 66 217 0.0 0.0 0.00 0.00 0.00 28 1019.1
20260830081244 66 217 0.0 0.0 0.00 0.00 0.00 30 1018.7
20260830080739 66 136 0.0 0.0 0.00 0.00 0.00 30 1018.7
20260830080233 67 204 0.0 0.0 0.00 0.00 0.00 28 1018.7
20260830075732 67 188 0.0 0.0 0.00 0.00 0.00 27 1018.7
20260830075225 68 187 0.0 0.0 0.00 0.00 0.00 27 1019.1
20260830075218 68 243 0.0 0.0 0.00 0.00 0.00 26 1019.1
20260830074823 68 229 0.0 0.0 0.00 0.00 0.00 27 1019.1
20260830073709 68 211 0.0 0.0 0.00 0.00 0.00 26 1019.1
20260830073205 68 250 0.0 0.0 0.00 0.00 0.00 26 1018.7
20260830072700 68 185 0.0 0.0 0.00 0.00 0.00 26 1018.7
20260830072153 68 246 0.0 0.0 0.00 0.00 0.00 26 1019.1
20260830071648 68 204 0.0 0.0 0.00 0.00 0.00 26 1018.7
20260830071144 68 217 0.0 0.0 0.00 0.00 0.00 25 1019.1
20260830070637 68 262 0.0 0.0 0.00 0.00 0.00 25 1019.1
20260830070632 68 255 0.0 0.0 0.00 0.00 0.00 25 1018.7
20260830065628 69 222 0.0 0.0 0.00 0.00 0.00 25 1018.7
20260830065121 69 295 0.0 0.0 0.00 0.00 0.00 25 1018.7
20260830064616 69 181 0.0 0.0 0.00 0.00 0.00 25 1018.7
20260830064112 69 311 0.0 0.0 0.00 0.00 0.00 25 1018.7
20260830063606 69 265 0.0 0.0 0.00 0.00 0.00 25 1018.7
20260830063100 69 161 0.0 0.0 0.00 0.00 0.00 25 1018.7
20260830062556 69 250 0.0 0.0 0.00 0.00 0.00 25 1018.7
20260830062049 69 220 0.0 0.9 0.00 0.00 0.00 25 1019.1
20260830061545 69 158 0.0 0.9 0.00 0.00 0.00 24 1018.7
20260830061042 69 255 0.0 0.0 0.00 0.00 0.00 24 1018.7
20260830061036 69 282 0.0 0.0 0.00 0.00 0.00 24 1019.1
20260830060028 69 230 0.0 0.0 0.00 0.00 0.00 24 1019.1
20260830055524 69 260 0.0 0.0 0.00 0.00 0.00 24 1019.1
20260830055018 69 197 0.0 0.0 0.00 0.00 0.00 24 1018.7
20260830054516 69 226 0.0 0.0 0.00 0.00 0.00 24 1019.1
20260830054510 69 179 0.0 0.0 0.00 0.00 0.00 24 1019.1
20260830053958 69 194 0.0 0.0 0.00 0.00 0.00 24 1019.1
20260830053602 69 243 0.0 0.0 0.00 0.00 0.00 24 1018.7
20260830052452 69 228 0.0 0.0 0.00 0.00 0.00 24 1019.1
20260830051947 69 231 0.0 0.0 0.00 0.00 0.00 23 1019.1
20260830051441 69 174 0.0 0.0 0.00 0.00 0.00 23 1019.1
20260830050938 69 227 0.0 0.0 0.00 0.00 0.00 23 1019.1
20260830050432 70 214 0.0 0.9 0.00 0.00 0.00 23 1019.1
20260830050426 70 254 0.0 0.9 0.00 0.00 0.00 23 1019.1
20260830045422 70 156 0.0 0.0 0.00 0.00 0.00 23 1019.1
20260830044916 70 245 0.0 0.0 0.00 0.00 0.00 22 1019.4
20260830044911 70 214 0.0 0.0 0.00 0.00 0.00 22 1019.1
20260830043905 71 185 0.0 0.0 0.00 0.00 0.00 21 1019.1
20260830043358 71 253 0.0 0.0 0.00 0.00 0.00 21 1019.1
20260830042853 71 272 0.0 0.9 0.00 0.00 0.00 21 1019.1
20260830042349 71 57 0.0 0.9 0.00 0.00 0.00 20 1018.7
20260830041842 71 226 0.0 0.9 0.00 0.00 0.00 20 1018.4
20260830041337 71 185 0.0 0.9 0.00 0.00 0.00 21 1018.7
20260830040833 71 292 0.0 2.6 0.00 0.00 0.00 21 1018.7
20260830040327 72 207 0.0 2.6 0.00 0.00 0.00 21 1018.4
20260830035821 72 228 0.0 1.7 0.00 0.00 0.00 21 1018.4
20260830035318 73 315 0.0 1.7 0.00 0.00 0.00 20 1018.7
20260830035307 73 271 0.0 0.0 0.00 0.00 0.00 19 1018.7
20260830034911 73 241 0.0 0.9 0.00 0.00 0.00 20 1018.7
20260830033801 74 183 0.0 0.0 0.00 0.00 0.00 18 1018.7
20260830033257 74 270 0.0 0.0 0.00 0.00 0.00 18 1018.4
20260830033252 74 252 0.0 0.0 0.00 0.00 0.00 18 1018.4
20260830032246 74 334 0.0 0.0 0.00 0.00 0.00 15 1018.0
20260830032237 75 213 0.0 0.0 0.00 0.00 0.00 14 1018.0
20260830031841 75 254 0.0 0.0 0.00 0.00 0.00 15 1018.0
20260830030730 76 246 0.0 0.0 0.00 0.00 0.00 13 1018.0
20260830030224 76 233 0.0 0.0 0.00 0.00 0.00 13 1017.7
20260830030219 76 201 0.0 0.9 0.00 0.00 0.00 12 1018.0
20260830025215 77 285 0.0 1.7 0.00 0.00 0.00 12 1018.0
20260830024708 77 269 0.0 1.7 0.00 0.00 0.00 11 1018.4
20260830024700 78 205 0.0 0.9 0.00 0.00 0.00 11 1018.0
20260830024305 78 171 0.0 0.0 0.00 0.00 0.00 11 1018.0
20260830023152 79 242 0.0 0.9 0.00 0.00 0.00 10 1018.0
20260830022647 79 250 0.0 0.0 0.00 0.00 0.00 10 1018.0
20260830022142 80 207 0.0 0.9 0.00 0.00 0.00 10 1018.0
20260830021637 80 191 0.0 0.9 0.00 0.00 0.00 10 1018.0
20260830021131 81 18 0.0 1.7 0.00 0.00 0.00 10 1018.0
20260830020626 82 259 0.0 1.7 0.00 0.00 0.00 10 1018.0
20260830020120 82 266 0.0 1.7 0.00 0.00 0.00 10 1018.0
20260830015615 83 266 0.0 1.7 0.00 0.00 0.00 10 1018.0
20260830015110 83 159 0.0 1.7 0.00 0.00 0.00 10 1018.4
20260830014604 83 225 0.0 1.7 0.00 0.00 0.00 10 1018.0
20260830014059 84 232 0.0 0.9 0.00 0.00 0.00 12 1018.0
20260830013555 84 298 0.0 0.9 0.00 0.00 0.00 12 1018.0
20260830013048 85 139 0.0 0.9 0.00 0.00 0.00 12 1018.0
20260830012639 85 306 0.0 0.9 0.00 0.00 0.00 11 1018.0
20260830012542 85 302 0.0 0.9 0.00 0.00 0.00 12 1018.0
20260830012535 85 184 0.0 0.9 0.00 0.00 0.00 11 1018.0